Preview of NWS' New Version of Forecast
This preview is not operational and should not be used for support decisions.

Regional Weather Roundup (RWR)

Issued by National Weather Service (NWS)

                            
000
ASUS45 KCYS 180810
RWRWY 

WYOMING REGIONAL WEATHER ROUNDUP
NATIONAL WEATHER SERVICE CHEYENNE WY
200 AM MDT TUE JUN 18 2019

NOTE:  "FAIR" INDICATES FEW OR NO CLOUDS BELOW 12,000 FEET
WITH NO SIGNIFICANT WEATHER AND/OR OBSTRUCTIONS TO VISIBILITY.

WYZ001-180900-
...YELLOWSTONE NATIONAL PARK...
  
CITY           SKY/WX    TMP DP  RH WIND       PRES   REMARKS
LK YELLOWSTONE NOT AVBL                                               
W YELLOWSTONE  NOT AVBL                                               

$$
WYZ002>013-054>058-071-098>099-180900-
...NORTHERN WYOMING...
  
CITY           SKY/WX    TMP DP  RH WIND       PRES   REMARKS
JACKSON        PTCLDY    41  41 100 CALM      30.19S FOG              
CODY           CLOUDY    58  48  69 SW3       30.10S                  
GREYBULL       MOCLDY    58  51  78 E8        30.04F                  
WORLAND        PTCLDY    55  52  89 S5        30.05F                  
SHERIDAN       PTCLDY    48  45  89 SW3       30.03F                  
BUFFALO        PTCLDY    50  47  89 S5        30.08F                  
GILLETTE       MOCLDY    55  54  96 S12       30.07F                  
HULETT         NOT AVBL                                               
NEWCASTLE      FAIR      50  48  93 SE6       30.11F                  

$$
WYZ014>020-022>026-101>103-180900-
...CENTRAL WYOMING...
  
CITY           SKY/WX    TMP DP  RH WIND       PRES   REMARKS
BIG PINEY      PTCLDY    47  43  86 W5        30.20F                  
PINEDALE       CLOUDY    46  43  87 CALM      30.21S                  
DUBOIS         FAIR      43  39  87 NW6       30.20S                  
LANDER         CLEAR     52  47  83 W10       30.11F                  
RIVERTON       CLOUDY    53  51  93 NE5       30.13S                  
CASPER         CLOUDY    55  54  96 N5        30.11F                  
DOUGLAS        CLOUDY    55  53  93 SE8       30.10F                  

$$
WYZ021-027>030-104>119-180900-
...SOUTHERN WYOMING...
  
CITY           SKY/WX    TMP DP  RH WIND       PRES   REMARKS
EVANSTON       CLOUDY    49  44  83 SW6       30.20F                  
KEMMERER       PTCLDY    48  41  76 N10       30.20F                  
FORT BRIDGER   CLEAR     52  45  76 CALM      30.22F                  
ROCK SPRINGS   MOCLDY    50  47  89 SW5       30.17F                  
DIXON          CLOUDY    51  45  79 S16G23    30.19F                  
RAWLINS        CLOUDY    50  46  86 SE5       30.17F                  
SARATOGA       FAIR      50  50 100 CALM      30.19F                  
LARAMIE        CLOUDY    50  46  86 S9        30.18F                  
CHEYENNE         N/A    N/A N/A N/A MISG      30.13F                  
TORRINGTON     MOCLDY    57  56  96 CALM      30.07F                  
PINE BLUFFS    FOG       54  54 100 E5        30.11F VSB 3/4          

$$
  

000
ASUS45 KCYS 180810
RWRWY 

WYOMING REGIONAL WEATHER ROUNDUP
NATIONAL WEATHER SERVICE CHEYENNE WY
200 AM MDT TUE JUN 18 2019

NOTE:  "FAIR" INDICATES FEW OR NO CLOUDS BELOW 12,000 FEET
WITH NO SIGNIFICANT WEATHER AND/OR OBSTRUCTIONS TO VISIBILITY.

WYZ001-180900-
YELLOWSTONE NATIONAL PARK
  
CITY           SKY/WX    TMP DP  RH WIND       PRES   REMARKS
LK YELLOWSTONE NOT AVBL                                               
W YELLOWSTONE  NOT AVBL                                               

$$
WYZ002>013-054>058-071-098>099-180900-
NORTHERN WYOMING
  
CITY           SKY/WX    TMP DP  RH WIND       PRES   REMARKS
JACKSON        FAIR      41  41 100 CALM      30.19S FOG              
CODY           CLOUDY    58  48  69 SW3       30.10S                  
GREYBULL       FAIR      58  51  78 E8        30.04F                  
WORLAND        FAIR      55  52  89 S5        30.05F                  
SHERIDAN       FAIR      48  45  89 SW3       30.03F                  
BUFFALO        FAIR      50  47  89 S5        30.08F                  
GILLETTE       FAIR      55  54  96 S12       30.07F                  
NEWCASTLE      FAIR      50  48  93 SE6       30.11                   

$$
WYZ014>020-022>026-101>103-180900-
CENTRAL WYOMING
  
CITY           SKY/WX    TMP DP  RH WIND       PRES   REMARKS
BIG PINEY      FAIR      47  43  86 W5        30.20F                  
PINEDALE       CLOUDY    46  43  87 CALM      30.21                   
DUBOIS         FAIR      43  39  87 NW6       30.20                   
LANDER         FAIR      52  47  83 W10       30.11F                  
RIVERTON       CLOUDY    53  51  93 NE5       30.13S                  
CASPER         CLOUDY    55  54  96 N5        30.11F                  
DOUGLAS        CLOUDY    55  53  93 SE8       30.10F                  

$$
WYZ021-027>030-104>119-180900-
SOUTHERN WYOMING
  
CITY           SKY/WX    TMP DP  RH WIND       PRES   REMARKS
EVANSTON       MOCLDY    49  44  83 SW6       30.20F                  
KEMMERER       FAIR      46  41  81 N10       30.20                   
FORT BRIDGER   SUNNY     52  45  76 CALM      30.22F                  
ROCK SPRINGS   FAIR      50  47  89 SW5       30.17F                  
DIXON          CLOUDY    51  45  79 S16G23    30.19F                  
RAWLINS        MOCLDY    50  46  86 SE5       30.17F                  
SARATOGA       FAIR      50  50 100 CALM      30.19F                  
LARAMIE        CLOUDY    50  46  86 S9        30.18F                  
CHEYENNE         N/A    N/A N/A N/A MISG      30.13F                  
TORRINGTON     FAIR      57  56  96 CALM      30.07F                  
PINE BLUFFS    FOG       54  54 100 E5        30.11F VSB 3/4          

$$